Starlink 32040

operational
NORAD ID: 60109 Int'l Des: 2024-117 Owner: SPXS Country: US Constellation: starlink
LEOCIRCULAR

About Starlink 32040

Description loading...

Live Position

Loading 3D Globe...

Upcoming Passes

Altitude History

Altitude vs Time

uPlot chart will show altitude changes over time

Two-Line Element Set

1 60109U 24117U 25303.27011909 -.00000390 00000-0 -10231-5 0 9999
2 60109 53.1608 282.5584 0001428 87.7127 272.4038 15.30186657 76924
Epoch: Oct 30, 2025 • Age: 18 hours

Current Status

Altitude 492.2 km
Velocity 7.62 km/s
Sub-Earth Point -46.92°S, 100.34°E
Launch Date Jun 23, 2024
Age 1.3 years
Type internet

Technical Details

Classification Payload
Mass 730.00 kg
Dry Mass 700.00 kg
Total Mass 730.00 kg
Length 0.30 m
Diameter 4.10 m
Span 29.00 m
Shape Box + pan
Manufacturer SPXS
Bus Type Starlink V2M
Phase Status In Orbit
Owner/State SPXS/US

Large Constellations

Loading constellations...